Погода в Тамариндо

Коста-Рика     10°18′53″N   85°48′55″W
темп.,
°C
ветер,
м/с
пор.,
м/с
влажн.,
%
обл.,
%
осадки,
мм/ч
давл.,
гПа
погр.,
м
24 января, вс
вс2400:00+22всв4118023 0.0 1010334
03:00+21всв41188100 0.0 1009373
06:00+20всв4990100 0.0 1011222
09:00+28всв685217 0.0 1013862
12:00+33всв683195 0.0 10101735
15:00+33всв683810 0.0 10071962
18:00+26св13658 0.0 1009105
21:00+23всв36744 0.0 1010209
25 января, пн
пн2500:00+21в248928 0.0 1010106
03:00+20всв2392100 0.0 100961
06:00+20в2291100 0.0 101134
09:00+28всв4654100 0.0 1012918
12:00+32в3439100 0.0 10101613
15:00+29зюз4455100 0.0 1007747
18:00+25ю127169 0.0 100842
21:00+23всв23777 0.0 101099
26 января, вт
вт2600:00+21в23904 0.0 101067
03:00+21в229126 0.0 100948
06:00+21в229314 0.0 101051
09:00+28в35580 0.0 1011907
12:00+32в24400 0.0 10101254
15:00+31ссз24502 0.0 10071186
18:00+25юз247734 0.0 1008108
21:00+23ю12866 0.0 101025
27 января, ср
ср2700:00+22в11884 0.0 101024
03:00+21всв129165 0.0 100924
06:00+21всв229249 0.0 101031
09:00+28св476212 0.0 10121021
12:00+33всв784412 0.0 10101873
15:00+31вюв595053 0.0 10071210
18:00+27всв375937 0.0 1008258
21:00+24всв4127243 0.0 1011579
28 января, чт
чт2800:00+22всв258627 0.0 1011129
03:00+22всв38890 0.0 1009273
06:00+22всв410863 0.0 1011355
09:00+29всв1015510 0.0 10121335
12:00+33всв1115410 0.0 10101770
15:00+32всв1114430 0.0 10081702
18:00+27св914550 0.0 1009934
21:00+25св715670 0.0 10111125